Simultaneous Nadir Overpasses (SNOs) Predictions

Prediction of SNOs between LANDSAT-8 and METOP-A Satellite Orbit:

Table of predicted SNOs for the next 14.0 days since TLE Epoch: 6/22/2018
Index Date (LANDSAT-8) Time (LANDSAT-8) Lat,Lon (LANDSAT-8) SZA (LANDSAT-8 ) Date (METOP-A) Time (METOP-A) Lat,Lon (METOP-A) SZA (METOP-A ) Distance(km) Time Diff (sec)
1 06/24/2018 06:16:02 -81.38, -49.61 119.51 06/24/2018 06:15:26 -81.37, -49.59 119.53 0.67 36
2 06/24/2018 07:05:28 81.38, 118.14 60.51 06/24/2018 07:06:06 81.38, 118.15 60.52 0.54 38
3 06/27/2018 01:50:19 -81.38, 16.82 119.45 06/27/2018 01:49:43 -81.37, 16.89 119.46 1.23 36
4 06/27/2018 02:39:45 81.38,-175.46 60.57 06/27/2018 02:40:23 81.38,-175.40 60.59 1.02 38
5 06/29/2018 21:24:35 -81.38, 83.22 119.33 06/29/2018 21:23:59 -81.37, 83.36 119.34 2.33 36
6 06/29/2018 22:14:01 81.38,-109.09 60.68 06/29/2018 22:14:39 81.38,-108.96 60.71 2.14 38
7 07/02/2018 16:58:52 -81.37, 149.59 119.17 07/02/2018 16:58:17 -81.37, 149.42 119.20 2.76 35
8 07/02/2018 17:48:18 81.37, -42.74 60.84 07/02/2018 17:48:57 81.37, -42.92 60.84 3.06 39
9 07/05/2018 12:33:09 -81.37,-144.07 118.96 07/05/2018 12:32:34 -81.37,-144.13 118.97 0.96 35




NCC Satellite Simultaneous Nadir Overpasses (SNOs) Prediction Service
